Weather History for El Reno, OK

Change the Weather History Date:

Tuesday, August 13, 2013

  Actual Average (KOKC) Record (KOKC)
Temperature  
Mean Temperature 76 °F 83 °F  
Max Temperature 82 °F 94 °F 107 °F (1936)
Min Temperature 69 °F 72 °F 54 °F (1967)
Cooling Degree Days 10 18  
Month to date cooling degree days 240  
Year to date cooling degree days 1439  
Growing Degree Days 26 (Base 50)    
Moisture  
Dew Point 69 °F    
Average Humidity 82    
Maximum Humidity 100    
Minimum Humidity 62    
Precipitation  
Precipitation 0.06 in 0.11 in 1.67 in (1989)
Month to date precipitation 1.39  
Year to date precipitation 23.00  
Sea Level Pressure  
Sea Level Pressure 30.05 in    
Wind  
Wind Speed 5 mph (NE)    
Max Wind Speed 14 mph    
Max Gust Speed 20 mph    
T = Trace of Precipitation, MM = Missing Value Source: NWS Daily Summary

Daily Weather History Graph

Daily Weather History Graph

Search for Another Location

Airport:

Trip Planner

Search our weather history database for the weather conditions in past years. The results will help you decide how hot, cold, wet, or windy it might be!

Date:

Astronomy

Aug. 13, 2013 Rise Set
Actual Time 6:49 AM CDT 8:23 PM CDT
Civil Twilight 6:22 AM CDT 8:50 PM CDT
Nautical Twilight 5:50 AM CDT 9:22 PM CDT
Astronomical Twilight 5:15 AM CDT 9:56 PM CDT
Moon 1:29 PM CDT (8/13) No Moon Set
Length of Visible Light 14h 27m
Length of Day
13h 33m
Waxing Crescent, 42% of the Moon is Illuminated
Aug 13
Waxing Crescent
Aug 14
First Quarter
Aug 20
Full
Aug 28
Last Quarter
Sep 5
New

Hourly Weather History & Observations

Time (CDT) Temp. Heat Index Dew Point Humidity Pressure Visibility Wind Dir Wind Speed Gust Speed Precip Events Conditions
7:35 AM 69.8 °F - 69.8 °F 100% 30.02 in - South 3.5 mph - N/A Thunderstorm Thunderstorm
7:55 AM 71.6 °F - 69.8 °F 94% 30.03 in - SSW 5.8 mph - N/A   Unknown
8:15 AM 71.6 °F - 69.8 °F 94% 30.04 in - SW 3.5 mph - N/A Thunderstorm Thunderstorm
8:35 AM 71.6 °F - 69.8 °F 94% 30.04 in - SSW 5.8 mph - N/A   Overcast
8:55 AM 71.6 °F - 69.8 °F 94% 30.05 in - WSW 4.6 mph - N/A   Overcast
9:15 AM 71.6 °F - 69.8 °F 94% 30.05 in - WSW 3.5 mph - N/A   Overcast
9:35 AM 71.6 °F - 69.8 °F 94% 30.05 in - Calm Calm - N/A   Overcast
9:55 AM 71.6 °F - 69.8 °F 94% 30.06 in - Calm Calm - N/A   Overcast
10:15 AM 73.4 °F - 69.8 °F 88% 30.06 in - Calm Calm - N/A   Unknown
10:35 AM 73.4 °F - 69.8 °F 88% 30.07 in - SSW 4.6 mph - 0.01 in   Overcast
10:55 AM 73.4 °F - 69.8 °F 88% 30.07 in - SSW 3.5 mph - 0.02 in   Overcast
11:15 AM 73.4 °F - 69.8 °F 88% 30.08 in - Calm Calm - N/A   Unknown
11:35 AM 73.4 °F - 69.8 °F 88% 30.09 in - SSW 3.5 mph - N/A   Overcast
11:55 AM 73.4 °F - 69.8 °F 88% 30.09 in - SW 5.8 mph - N/A   Overcast
12:15 PM 73.4 °F - 69.8 °F 88% 30.08 in - SW 6.9 mph - N/A   Unknown
12:35 PM 73.4 °F - 71.6 °F 94% 30.08 in - Calm Calm - N/A   Mostly Cloudy
12:55 PM 71.6 °F - 69.8 °F 94% 30.08 in - NNW 3.5 mph - 0.04 in   Unknown
1:15 PM 73.4 °F - 71.6 °F 94% 30.08 in - NE 6.9 mph - N/A   Unknown
1:35 PM 75.2 °F - 71.6 °F 89% 30.07 in - NNE 4.6 mph - N/A   Unknown
1:55 PM 77.0 °F - 71.6 °F 83% 30.07 in - North 4.6 mph - N/A   Mostly Cloudy
2:15 PM 77.0 °F - 69.8 °F 78% 30.06 in - North 6.9 mph - N/A   Mostly Cloudy
2:35 PM 77.0 °F - 69.8 °F 78% 30.05 in - Calm Calm - N/A   Scattered Clouds
2:55 PM 78.8 °F - 69.8 °F 74% 30.05 in - North 8.1 mph - N/A   Scattered Clouds
3:15 PM 78.8 °F - 69.8 °F 74% 30.04 in - North 5.8 mph - N/A   Scattered Clouds
3:35 PM 80.6 °F 83.9 °F 69.8 °F 70% 30.04 in - Calm Calm - N/A   Scattered Clouds
3:55 PM 82.4 °F 86.3 °F 69.8 °F 66% 30.03 in - North 8.1 mph - N/A   Scattered Clouds
4:15 PM 80.6 °F 83.9 °F 69.8 °F 70% 30.02 in - NNE 8.1 mph - N/A   Scattered Clouds
4:35 PM 82.4 °F 85.4 °F 68.0 °F 62% 30.02 in - North 6.9 mph - N/A   Scattered Clouds
4:55 PM 80.6 °F 83.2 °F 68.0 °F 65% 30.02 in - North 3.5 mph - N/A   Mostly Cloudy
5:15 PM 82.4 °F 85.4 °F 68.0 °F 62% 30.02 in - NNE 8.1 mph - N/A   Scattered Clouds
5:35 PM 82.4 °F 85.4 °F 68.0 °F 62% 30.01 in - North 6.9 mph - N/A   Scattered Clouds
5:55 PM 82.4 °F 85.4 °F 68.0 °F 62% 30.01 in - NE 5.8 mph - N/A   Scattered Clouds
6:55 PM 80.6 °F 83.9 °F 69.8 °F 70% 30.01 in - ENE 8.1 mph - N/A   Scattered Clouds
7:15 PM 80.6 °F 83.2 °F 68.0 °F 65% 30.02 in - NE 9.2 mph - N/A   Clear
7:35 PM 80.6 °F 83.2 °F 68.0 °F 65% 30.02 in - NE 6.9 mph - N/A   Clear
7:55 PM 78.8 °F - 69.8 °F 74% 30.02 in - ENE 6.9 mph - N/A   Scattered Clouds
8:15 PM 77.0 °F - 69.8 °F 78% 30.02 in - NE 6.9 mph - N/A   Clear
8:35 PM 77.0 °F - 69.8 °F 78% 30.03 in - NE 9.2 mph - N/A   Clear
8:55 PM 75.2 °F - 69.8 °F 83% 30.04 in - NE 11.5 mph - N/A   Scattered Clouds
9:15 PM 75.2 °F - 69.8 °F 83% 30.05 in - ENE 10.4 mph - N/A   Mostly Cloudy
9:35 PM 75.2 °F - 68.0 °F 78% 30.07 in - ENE 13.8 mph 19.6 mph N/A   Overcast
9:55 PM 73.4 °F - 68.0 °F 83% 30.07 in - ENE 11.5 mph - N/A   Mostly Cloudy
10:15 PM 73.4 °F - 68.0 °F 83% 30.08 in - ENE 10.4 mph - N/A   Scattered Clouds
10:35 PM 71.6 °F - 68.0 °F 88% 30.08 in - ENE 9.2 mph - N/A   Unknown
10:55 PM 71.6 °F - 68.0 °F 88% 30.08 in - ENE 12.7 mph - N/A   Unknown
11:15 PM 71.6 °F - 68.0 °F 88% 30.08 in - East 6.9 mph - N/A   Unknown
11:35 PM 69.8 °F - 68.0 °F 94% 30.09 in - ENE 4.6 mph - N/A   Unknown
11:55 PM 69.8 °F - 68.0 °F 94% 30.09 in - ENE 3.5 mph - N/A   Unknown